GW5997 Weather Reports


Display with metric or nautical units.
time (UTC)temp
F
wind
direction
speed
MPH
gust
MPH
rain 1hr
in
rain 24hr
in
rain mn
in
humidity
%
barometer
mb
20260504231224 79 30 0.0 1.0 0.00 0.00 0.00 75 1016.5
20260504230720 79 89 2.0 3.0 0.00 0.00 0.00 75 1016.3
20260504230219 79 62 0.0 1.0 0.00 0.00 0.00 75 1016.1
20260504225718 79 51 2.0 2.0 0.00 0.00 0.00 75 1015.9
20260504225213 80 155 5.0 7.0 0.00 0.00 0.00 74 1015.8
20260504224711 80 131 4.0 4.0 0.00 0.00 0.00 74 1016.0
20260504224208 80 65 1.0 1.0 0.00 0.00 0.00 74 1016.0
20260504223704 80 60 1.0 1.0 0.00 0.00 0.00 74 1015.7
20260504223200 80 65 2.0 2.0 0.00 0.00 0.00 74 1015.8
20260504222657 80 61 1.0 2.0 0.00 0.00 0.00 74 1015.7
20260504222153 80 120 1.0 1.0 0.00 0.00 0.00 74 1015.6
20260504221651 81 82 0.0 0.0 0.00 0.00 0.00 73 1015.3
20260504221148 81 68 1.0 1.0 0.00 0.00 0.00 73 1015.3
20260504220644 81 72 1.0 1.0 0.00 0.00 0.00 72 1015.5
20260504220142 81 55 1.0 1.0 0.00 0.00 0.00 72 1015.3
20260504215638 82 99 2.0 3.0 0.00 0.00 0.00 71 1015.1
20260504215136 82 90 0.0 0.0 0.00 0.00 0.00 70 1015.0
20260504214631 83 62 2.0 4.0 0.00 0.00 0.00 69 1015.0
20260504214128 84 49 6.0 8.0 0.00 0.00 0.00 68 1015.1
20260504213625 84 204 4.0 6.0 0.00 0.00 0.00 68 1015.0
20260504213121 84 235 2.0 2.0 0.00 0.00 0.00 68 1014.9
20260504212618 84 58 2.0 2.0 0.00 0.00 0.00 69 1014.8
20260504212115 84 111 2.0 3.0 0.00 0.00 0.00 68 1014.8
20260504211612 84 101 4.0 4.0 0.00 0.00 0.00 67 1014.8
20260504211109 85 71 2.0 4.0 0.00 0.00 0.00 66 1014.7
20260504210606 84 44 4.0 6.0 0.00 0.00 0.00 68 1014.8
20260504205601 84 203 1.0 2.0 0.00 0.00 0.00 68 1014.7
20260504205058 85 36 1.0 2.0 0.00 0.00 0.00 67 1014.6
20260504204555 85 44 2.0 2.0 0.00 0.00 0.00 66 1014.6
20260504204055 85 119 3.0 3.0 0.00 0.00 0.00 66 1014.4
20260504203552 86 133 5.0 7.0 0.00 0.00 0.00 65 1014.5
20260504203050 86 106 3.0 4.0 0.00 0.00 0.00 65 1014.5
20260504202545 85 119 2.0 4.0 0.00 0.00 0.00 65 1014.8
20260504202042 85 72 3.0 3.0 0.00 0.00 0.00 66 1014.6
20260504201539 85 146 4.0 4.0 0.00 0.00 0.00 65 1014.5
20260504201037 86 108 3.0 6.0 0.00 0.00 0.00 65 1014.5
20260504200533 86 74 5.0 8.0 0.00 0.00 0.00 64 1014.5
20260504200030 85 96 4.0 6.0 0.00 0.00 0.00 68 1014.6
20260504195526 85 70 2.0 2.0 0.00 0.00 0.00 69 1014.7
20260504195023 86 110 9.0 11.0 0.00 0.00 0.00 66 1014.7
20260504194519 87 60 3.0 3.0 0.00 0.00 0.00 63 1014.7
20260504194014 86 113 4.0 4.0 0.00 0.00 0.00 64 1014.7
20260504193511 86 126 2.0 3.0 0.00 0.00 0.00 65 1014.9
20260504193010 85 144 1.0 1.0 0.00 0.00 0.00 68 1014.7
20260504192508 85 79 6.0 7.0 0.00 0.00 0.00 64 1014.6
20260504192006 85 87 8.0 10.0 0.00 0.00 0.00 64 1014.8
20260504191504 86 110 6.0 9.0 0.00 0.00 0.00 62 1014.6
20260504190959 87 107 4.0 4.0 0.00 0.00 0.00 63 1015.0
20260504190455 87 102 2.0 2.0 0.00 0.00 0.00 60 1014.9
20260504185952 87 127 1.0 1.0 0.00 0.00 0.00 61 1015.1
20260504185449 85 88 2.0 3.0 0.00 0.00 0.00 63 1015.0
20260504184945 85 80 5.0 6.0 0.00 0.00 0.00 63 1015.1
20260504184441 86 104 3.0 3.0 0.00 0.00 0.00 60 1015.2
20260504183936 88 113 4.0 4.0 0.00 0.00 0.00 60 1015.3
20260504183434 86 73 0.0 1.0 0.00 0.00 0.00 62 1015.2
20260504182932 85 72 2.0 3.0 0.00 0.00 0.00 63 1015.3
20260504182429 85 101 5.0 6.0 0.00 0.00 0.00 62 1015.3
20260504181926 87 101 4.0 6.0 0.00 0.00 0.00 61 1015.4
20260504181423 87 87 2.0 3.0 0.00 0.00 0.00 60 1015.5
20260504180922 87 188 4.0 4.0 0.00 0.00 0.00 57 1015.5
20260504180420 87 128 2.0 3.0 0.00 0.00 0.00 61 1015.4
20260504175918 85 68 1.0 1.0 0.00 0.00 0.00 63 1015.5
20260504175414 85 104 4.0 4.0 0.00 0.00 0.00 64 1015.6
20260504174912 87 81 6.0 7.0 0.00 0.00 0.00 61 1015.7
20260504174410 86 154 3.0 3.0 0.00 0.00 0.00 62 1015.7
20260504173907 85 59 3.0 3.0 0.00 0.00 0.00 65 1015.5
20260504173403 85 100 9.0 10.0 0.00 0.00 0.00 62 1015.9
20260504172900 86 118 4.0 6.0 0.00 0.00 0.00 61 1016.2
20260504172357 86 129 5.0 7.0 0.00 0.00 0.00 60 1015.9
20260504171852 87 105 4.0 4.0 0.00 0.00 0.00 59 1015.9
20260504171350 86 104 0.0 1.0 0.00 0.00 0.00 60 1016.0
20260504170847 86 175 5.0 7.0 0.00 0.00 0.00 59 1016.0
20260504170344 86 83 2.0 3.0 0.00 0.00 0.00 59 1016.3
20260504160302 85 115 4.0 6.0 0.00 0.00 0.00 60 1016.8
20260504150728 84 84 8.0 11.0 0.00 0.00 0.00 61 1017.2
20260504150224 84 145 5.0 8.0 0.00 0.00 0.00 64 1017.2
20260504141154 82 193 6.0 13.0 0.00 0.00 0.00 71 1017.2
20260504140650 82 89 2.0 3.0 0.00 0.00 0.00 73 1017.2
20260504140146 82 50 5.0 8.0 0.00 0.00 0.00 72 1017.3
20260504130614 80 90 4.0 7.0 0.00 0.00 0.00 77 1017.3
20260504130111 80 75 6.0 8.0 0.00 0.00 0.00 77 1017.5
20260504110502 75 102 3.0 3.0 0.00 0.00 0.00 88 1017.3
20260504100424 74 114 3.0 3.0 0.00 0.00 0.00 89 1017.1
20260504081817 74 122 3.0 3.0 0.00 0.00 0.00 91 1016.1
20260504081314 74 176 2.0 3.0 0.00 0.00 0.00 91 1016.2
20260504080810 73 143 1.0 2.0 0.00 0.00 0.00 91 1016.1
20260504080307 73 93 0.0 1.0 0.00 0.00 0.00 92 1016.4
20260504070235 74 100 2.0 2.0 0.00 0.00 0.00 90 1016.2
20260504060155 73 154 2.0 3.0 0.00 0.00 0.00 92 1016.3
20260504050623 74 158 2.0 2.0 0.00 0.00 0.00 91 1017.1
20260504050120 74 148 3.0 3.0 0.00 0.00 0.00 91 1017.4
20260504045617 74 119 2.0 2.0 0.00 0.00 0.00 91 1017.3
20260504045112 74 107 1.0 1.0 0.00 0.00 0.00 91 1017.4
20260504044610 74 126 0.0 1.0 0.00 0.00 0.00 91 1017.5
20260504044106 74 119 0.0 0.0 0.00 0.00 0.00 91 1017.6
20260504043604 74 132 1.0 1.0 0.00 0.00 0.00 91 1017.6
20260504043101 74 123 2.0 2.0 0.00 0.00 0.00 91 1017.6
20260504042558 74 133 1.0 1.0 0.00 0.00 0.00 91 1017.7
20260504042055 74 128 2.0 2.0 0.00 0.00 0.00 91 1017.7
20260504041550 74 95 1.0 1.0 0.00 0.00 0.00 91 1017.7
20260504041047 74 97 0.0 1.0 0.00 0.00 0.00 91 1017.9
20260504040544 74 92 0.0 1.0 0.00 0.00 0.00 91 1017.8
20260504040041 74 145 1.0 1.0 0.00 0.00 0.00 91 1017.8
20260504035538 74 96 0.0 1.0 0.00 0.00 0.00 90 1018.0
20260504035034 75 86 0.0 0.0 0.00 0.00 0.00 90 1018.1
20260504034533 75 135 1.0 1.0 0.00 0.00 0.00 90 1018.2
20260504034029 74 156 3.0 3.0 0.00 0.00 0.00 90 1018.1
20260504033527 74 105 1.0 1.0 0.00 0.00 0.00 90 1018.1
20260504033024 75 132 2.0 2.0 0.00 0.00 0.00 90 1018.2
20260504032521 75 85 0.0 0.0 0.00 0.00 0.00 90 1018.1
20260504032017 75 116 3.0 4.0 0.00 0.00 0.00 90 1018.2
20260504031514 75 118 2.0 3.0 0.00 0.00 0.00 90 1018.1
20260504031010 75 90 1.0 1.0 0.00 0.00 0.00 90 1018.2
20260504030508 75 153 1.0 2.0 0.00 0.00 0.00 90 1017.9
20260504030004 75 95 2.0 2.0 0.00 0.00 0.00 90 1018.1
20260504025501 75 125 0.0 0.0 0.00 0.00 0.00 90 1017.9
20260504024958 75 162 1.0 1.0 0.00 0.00 0.00 90 1017.8
20260504024454 74 154 1.0 1.0 0.00 0.00 0.00 90 1017.9
20260504023952 74 133 0.0 0.0 0.00 0.00 0.00 89 1017.8
20260504023449 75 113 1.0 1.0 0.00 0.00 0.00 89 1017.8
20260504022944 75 128 1.0 2.0 0.00 0.00 0.00 88 1017.9
20260504022440 75 120 1.0 1.0 0.00 0.00 0.00 88 1017.8
20260504021937 75 149 2.0 2.0 0.00 0.00 0.00 88 1017.9
20260504021435 75 113 2.0 3.0 0.00 0.00 0.00 87 1017.6
20260504020932 75 112 2.0 2.0 0.00 0.00 0.00 87 1017.7
20260504020428 75 108 2.0 3.0 0.00 0.00 0.00 86 1017.6
20260504015925 75 108 4.0 4.0 0.00 0.00 0.00 86 1017.5
20260504015421 75 91 1.0 2.0 0.00 0.00 0.00 86 1017.6
20260504014917 75 103 2.0 2.0 0.00 0.00 0.00 86 1017.6
20260504014413 75 87 0.0 0.0 0.00 0.00 0.00 85 1017.6
20260504013910 75 82 0.0 1.0 0.00 0.00 0.00 85 1017.3
20260504013409 75 109 1.0 1.0 0.00 0.00 0.00 85 1017.5
20260504012904 74 103 1.0 1.0 0.00 0.00 0.00 85 1017.5
20260504012402 74 112 1.0 1.0 0.00 0.00 0.00 84 1017.5
20260504011859 74 100 0.0 0.0 0.00 0.00 0.00 84 1017.5
20260504011356 75 123 0.0 1.0 0.00 0.00 0.00 84 1017.3
20260504010852 75 118 0.0 0.0 0.00 0.00 0.00 84 1017.3
20260504010348 75 119 0.0 0.0 0.00 0.00 0.00 83 1017.6
20260504005845 75 90 0.0 0.0 0.00 0.00 0.00 82 1017.4
20260504005341 75 88 1.0 2.0 0.00 0.00 0.00 82 1017.4
20260504004839 75 89 2.0 2.0 0.00 0.00 0.00 82 1017.4
20260504004337 75 92 2.0 2.0 0.00 0.00 0.00 82 1017.2
20260504003833 75 129 0.0 0.0 0.00 0.00 0.00 82 1017.4
20260504003330 75 107 0.0 0.0 0.00 0.00 0.00 81 1017.4
20260504002826 75 106 0.0 1.0 0.00 0.00 0.00 81 1017.2
20260504002323 76 107 0.0 0.0 0.00 0.00 0.00 80 1017.1
20260504001821 76 99 4.0 6.0 0.00 0.00 0.00 79 1017.0
20260504001318 76 121 2.0 2.0 0.00 0.00 0.00 78 1016.9
20260504000815 76 98 2.0 3.0 0.00 0.00 0.00 78 1017.1
20260504000312 76 95 1.0 1.0 0.00 0.00 0.00 78 1017.0
20260503235810 77 119 2.0 2.0 0.00 0.00 0.00 77 1016.8
20260503235307 77 81 4.0 4.0 0.00 0.00 0.00 77 1016.8
20260503234804 77 120 2.0 3.0 0.00 0.00 0.00 76 1016.8
20260503234302 77 103 2.0 3.0 0.00 0.00 0.00 76 1016.5
20260503233800 77 124 2.0 3.0 0.00 0.00 0.00 75 1016.8
20260503233255 77 87 3.0 4.0 0.00 0.00 0.00 75 1016.5
20260503232752 77 107 3.0 3.0 0.00 0.00 0.00 74 1016.4
20260503232250 77 93 3.0 3.0 0.00 0.00 0.00 74 1016.4
20260503231747 77 76 0.0 0.0 0.00 0.00 0.00 74 1016.4